O/OREOS (USA 219)

Last updated on Mon Oct 20 2025 00:03:09 GMT+0000 (Coordinated Universal Time)

1 37224U 10062C 25292.26702997 .00006462 00000+0 63778-3 0 9990 2 37224 71.9696 265.4965 0014321 174.4851 185.6479 14.92218108 80684
UTC large
Height (km)
Speed (km/s)
/
Latitude / Longitude
Inclination (degrees)
Orbital Period (minutes)
Azimuth
Elevation
Range (km)
Doppler Factor

Next 0 passes for location: London (51.5072 / 0.1276)

Sorry there are no passes over London.